User: anonymous   Login
Location: Chenango Forks
(42.2242°N, 75.8278°W)
Time: 00:46:03
(UTC-04:00)
Language:

Okean 3 Rocket - Orbit

View from above orbital plane
View from above orbital plane
View from above satellite
View from above satellite

Ground track
Ground track

The orbit data is extracted from the following two-line orbital elements,

1 21398U 91039B   18111.63753750 +.00000097 +00000-0 +98590-5 0  9995
2 21398 082.5199 299.0507 0019997 250.3189 176.4013 14.79701737428488
Epoch (UTC): 21 April 2018 15:18:03
Eccentricity: 0.0019997
inclination: 82.5199°
perigee height: 616 km
apogee height: 644 km
right ascension of ascending node: 299.0507°
argument of perigee: 250.3189°
revolutions per day: 14.79701737
mean anomaly at epoch: 176.4013°
orbit number at epoch: 42848

The dashed part of the orbit path shows where the satellite is in the earth's shadow,  

DLR